Time,TemperatureF,DewpointF,PressureIn,WindDirection,WindDirectionDegrees,WindSpeedMPH,WindSpeedGustMPH,Humidity,HourlyPrecipIn,Conditions,Clouds,dailyrainin,SoftwareType,DateUTC
2013-05-16 00:01:00,72.4,44.0,29.97,SW,217,3.9,7.5,36,0.00,,CLR,0.00,VWS V14.00,2013-05-16 04:01:00,
2013-05-16 00:02:00,72.4,44.0,29.97,West,273,8.4,9.1,36,0.00,,CLR,0.00,VWS V14.00,2013-05-16 04:02:00,
2013-05-16 00:05:00,72.2,43.8,29.97,WNW,283,4.4,4.8,36,0.00,,CLR,0.00,VWS V14.00,2013-05-16 04:05:00,
2013-05-16 00:10:00,72.0,43.6,29.97,SSW,209,4.4,7.5,36,0.00,,CLR,0.00,VWS V14.00,2013-05-16 04:10:00,
2013-05-16 00:15:00,72.2,43.8,29.97,NW,305,9.1,13.2,36,0.00,,CLR,0.00,VWS V14.00,2013-05-16 04:15:00,
2013-05-16 00:20:00,72.2,43.8,29.97,WSW,238,6.4,7.5,36,0.00,,CLR,0.00,VWS V14.00,2013-05-16 04:20:00,
2013-05-16 00:26:00,71.8,43.5,29.97,West,259,5.9,6.4,36,0.00,,CLR,0.00,VWS V14.00,2013-05-16 04:26:00,
2013-05-16 00:31:00,71.1,43.5,29.97,WSW,250,6.4,7.0,37,0.00,,CLR,0.00,VWS V14.00,2013-05-16 04:31:00,
2013-05-16 00:36:00,71.1,43.5,29.97,West,268,6.4,9.1,37,0.00,,CLR,0.00,VWS V14.00,2013-05-16 04:36:00,
2013-05-16 00:41:00,71.1,43.5,29.97,SW,232,3.0,6.4,37,0.00,,CLR,0.00,VWS V14.00,2013-05-16 04:41:00,
2013-05-16 00:46:00,70.9,43.3,29.97,SSW,192,5.4,7.0,37,0.00,,CLR,0.00,VWS V14.00,2013-05-16 04:46:00,
2013-05-16 00:51:00,71.1,43.5,29.97,West,281,3.9,4.3,37,0.00,,CLR,0.00,VWS V14.00,2013-05-16 04:51:00,
2013-05-16 00:56:00,70.7,43.9,29.97,SW,235,3.0,4.8,38,0.00,,CLR,0.00,VWS V14.00,2013-05-16 04:56:00,
2013-05-16 01:01:00,70.0,43.9,29.97,WSW,246,4.4,5.9,39,0.00,,CLR,0.00,VWS V14.00,2013-05-16 05:01:00,
2013-05-16 01:06:00,70.2,43.4,29.97,WSW,241,0.0,3.8,38,0.00,,CLR,0.00,VWS V14.00,2013-05-16 05:06:00,
2013-05-16 01:11:00,70.2,43.4,29.97,SSW,198,3.4,3.8,38,0.00,,CLR,0.00,VWS V14.00,2013-05-16 05:11:00,
2013-05-16 01:16:00,70.2,43.4,29.97,SW,214,3.0,3.2,38,0.00,,CLR,0.00,VWS V14.00,2013-05-16 05:16:00,
2013-05-16 01:21:00,70.2,44.1,29.97,WSW,242,0.0,3.2,39,0.00,,CLR,0.00,VWS V14.00,2013-05-16 05:21:00,
2013-05-16 01:26:00,70.0,43.9,29.97,South,186,6.9,7.5,39,0.00,,CLR,0.00,VWS V14.00,2013-05-16 05:26:00,
2013-05-16 01:32:00,69.8,44.4,29.97,SW,231,3.0,3.8,40,0.00,,CLR,0.00,VWS V14.00,2013-05-16 05:32:00,
2013-05-16 01:37:00,69.6,44.2,29.97,SSW,203,6.9,7.5,40,0.00,,CLR,0.00,VWS V14.00,2013-05-16 05:37:00,
2013-05-16 01:42:00,69.8,44.4,29.97,SW,223,2.5,4.3,40,0.00,,CLR,0.00,VWS V14.00,2013-05-16 05:42:00,
2013-05-16 01:47:00,69.8,44.4,29.97,South,187,3.0,4.3,40,0.00,,CLR,0.00,VWS V14.00,2013-05-16 05:47:00,
2013-05-16 01:52:00,69.4,44.1,29.97,WSW,249,6.4,7.5,40,0.00,,CLR,0.00,VWS V14.00,2013-05-16 05:52:00,
2013-05-16 01:57:00,69.6,44.2,29.97,SW,222,3.9,4.8,40,0.00,,CLR,0.00,VWS V14.00,2013-05-16 05:57:00,
2013-05-16 02:02:00,69.4,44.7,29.97,SSE,168,5.9,6.4,41,0.00,,CLR,0.00,VWS V14.00,2013-05-16 06:02:00,
2013-05-16 02:07:00,69.2,44.5,29.97,SSW,197,3.9,4.8,41,0.00,,CLR,0.00,VWS V14.00,2013-05-16 06:07:00,
2013-05-16 02:13:00,69.2,44.5,29.97,NW,304,3.9,5.9,41,0.00,,CLR,0.00,VWS V14.00,2013-05-16 06:13:00,
2013-05-16 02:18:00,69.2,44.5,29.97,SSE,158,5.9,6.4,41,0.00,,CLR,0.00,VWS V14.00,2013-05-16 06:18:00,
2013-05-16 02:23:00,69.0,44.4,29.97,SSE,161,3.9,4.3,41,0.00,,CLR,0.00,VWS V14.00,2013-05-16 06:23:00,
2013-05-16 02:28:00,69.0,44.4,29.97,WSW,245,4.4,4.8,41,0.00,,CLR,0.00,VWS V14.00,2013-05-16 06:28:00,
2013-05-16 02:33:00,69.0,44.4,29.97,SSW,202,3.9,5.9,41,0.00,,CLR,0.00,VWS V14.00,2013-05-16 06:33:00,
2013-05-16 02:38:00,68.8,44.8,29.97,West,261,2.5,3.2,42,0.00,,CLR,0.00,VWS V14.00,2013-05-16 06:38:00,
2013-05-16 02:43:00,68.8,44.8,29.97,SSE,168,3.0,3.8,42,0.00,,CLR,0.00,VWS V14.00,2013-05-16 06:43:00,
2013-05-16 02:48:00,69.0,45.0,29.97,SW,236,4.4,7.0,42,0.00,,CLR,0.00,VWS V14.00,2013-05-16 06:48:00,
2013-05-16 02:53:00,68.7,45.3,29.97,WNW,292,2.5,3.8,43,0.00,,CLR,0.00,VWS V14.00,2013-05-16 06:53:00,
2013-05-16 02:58:00,68.5,45.1,29.97,WSW,244,4.4,7.0,43,0.00,,CLR,0.00,VWS V14.00,2013-05-16 06:58:00,
2013-05-16 03:04:00,68.5,45.1,29.97,SSW,211,5.4,7.5,43,0.00,,CLR,0.00,VWS V14.00,2013-05-16 07:04:00,
2013-05-16 03:09:00,68.3,45.0,29.97,SSE,153,6.4,7.0,43,0.00,,CLR,0.00,VWS V14.00,2013-05-16 07:09:00,
2013-05-16 03:14:00,68.3,45.0,29.97,WNW,282,5.4,6.4,43,0.00,,CLR,0.00,VWS V14.00,2013-05-16 07:14:00,
2013-05-16 03:19:00,68.3,45.0,29.97,SW,221,2.5,4.8,43,0.00,,CLR,0.00,VWS V14.00,2013-05-16 07:19:00,
2013-05-16 03:24:00,68.3,45.0,29.97,SSW,212,3.9,7.5,43,0.00,,CLR,0.00,VWS V14.00,2013-05-16 07:24:00,
2013-05-16 03:29:00,68.3,45.0,29.97,SSW,204,3.0,4.3,43,0.00,,CLR,0.00,VWS V14.00,2013-05-16 07:29:00,
2013-05-16 03:34:00,68.1,44.8,29.94,WSW,254,4.4,4.8,43,0.00,,CLR,0.00,VWS V14.00,2013-05-16 07:34:00,
2013-05-16 03:39:00,67.6,44.9,29.94,WSW,243,3.9,7.0,44,0.00,,CLR,0.00,VWS V14.00,2013-05-16 07:39:00,
2013-05-16 03:44:00,67.7,45.1,29.94,West,269,5.4,7.5,44,0.00,,CLR,0.00,VWS V14.00,2013-05-16 07:44:00,
2013-05-16 03:50:00,67.0,45.0,29.94,SW,218,2.5,7.5,45,0.00,,CLR,0.00,VWS V14.00,2013-05-16 07:50:00,
2013-05-16 03:55:00,67.0,45.0,29.94,SSW,200,4.4,4.8,45,0.00,,CLR,0.00,VWS V14.00,2013-05-16 07:55:00,
2013-05-16 04:00:00,67.4,44.7,29.94,SW,222,3.9,7.5,44,0.00,,CLR,0.00,VWS V14.00,2013-05-16 08:00:00,
2013-05-16 04:05:00,67.4,44.7,29.94,NW,324,3.9,4.8,44,0.00,,CLR,0.00,VWS V14.00,2013-05-16 08:05:00,
2013-05-16 04:10:00,67.2,44.6,29.94,WNW,302,3.9,9.1,44,0.00,,CLR,0.00,VWS V14.00,2013-05-16 08:10:00,
2013-05-16 04:15:00,67.2,44.0,29.94,WNW,293,3.4,5.9,43,0.00,,CLR,0.00,VWS V14.00,2013-05-16 08:15:00,
2013-05-16 04:20:00,67.0,43.8,29.94,West,266,5.9,13.2,43,0.00,,CLR,0.00,VWS V14.00,2013-05-16 08:20:00,
2013-05-16 04:25:00,67.0,44.4,29.94,WNW,294,5.9,7.5,44,0.00,,CLR,0.00,VWS V14.00,2013-05-16 08:25:00,
2013-05-16 04:30:00,66.8,43.6,29.94,NW,311,11.6,16.4,43,0.00,,CLR,0.00,VWS V14.00,2013-05-16 08:30:00,
2013-05-16 04:35:00,67.0,43.8,29.94,West,259,6.4,12.1,43,0.00,,CLR,0.00,VWS V14.00,2013-05-16 08:35:00,
2013-05-16 04:40:00,67.4,43.5,29.94,West,259,4.4,7.5,42,0.00,,CLR,0.00,VWS V14.00,2013-05-16 08:40:00,
2013-05-16 04:46:00,67.2,43.3,29.94,SSE,167,3.4,6.4,42,0.00,,CLR,0.00,VWS V14.00,2013-05-16 08:46:00,
2013-05-16 04:51:00,67.0,43.8,29.94,West,279,3.9,7.5,43,0.00,,CLR,0.00,VWS V14.00,2013-05-16 08:51:00,
2013-05-16 04:56:00,67.2,43.3,29.94,WSW,256,12.1,13.2,42,0.00,,CLR,0.00,VWS V14.00,2013-05-16 08:56:00,
2013-05-16 05:01:00,67.0,43.2,29.94,WNW,283,5.4,6.4,42,0.00,,CLR,0.00,VWS V14.00,2013-05-16 09:01:00,
2013-05-16 05:06:00,67.2,42.7,29.94,West,267,3.4,9.7,41,0.00,,CLR,0.00,VWS V14.00,2013-05-16 09:06:00,
2013-05-16 05:11:00,67.4,42.9,29.94,SSE,154,3.4,7.0,41,0.00,,CLR,0.00,VWS V14.00,2013-05-16 09:11:00,
2013-05-16 05:16:00,67.6,42.4,29.94,WNW,295,0.0,3.2,40,0.00,,CLR,0.00,VWS V14.00,2013-05-16 09:16:00,
2013-05-16 05:21:00,67.2,42.1,29.94,SW,234,3.0,3.2,40,0.00,,CLR,0.00,VWS V14.00,2013-05-16 09:21:00,
2013-05-16 05:26:00,66.8,43.0,29.94,SE,145,3.9,4.8,42,0.00,,CLR,0.00,VWS V14.00,2013-05-16 09:26:00,
2013-05-16 05:32:00,66.6,42.8,29.94,SSW,204,5.9,6.4,42,0.00,,CLR,0.00,VWS V14.00,2013-05-16 09:32:00,
2013-05-16 05:37:00,66.8,42.4,29.94,South,175,3.9,6.4,41,0.00,,CLR,0.00,VWS V14.00,2013-05-16 09:37:00,
2013-05-16 05:42:00,66.4,42.7,29.94,SSW,208,3.0,3.8,42,0.00,,CLR,0.00,VWS V14.00,2013-05-16 09:42:00,
2013-05-16 05:47:00,66.4,42.7,29.94,SSE,154,3.0,3.2,42,0.00,,CLR,0.00,VWS V14.00,2013-05-16 09:47:00,
2013-05-16 05:52:00,66.6,42.2,29.94,WSW,254,3.0,7.0,41,0.00,,CLR,0.00,VWS V14.00,2013-05-16 09:52:00,
2013-05-16 05:57:00,66.4,42.7,29.94,SW,214,3.0,4.3,42,0.00,,CLR,0.00,VWS V14.00,2013-05-16 09:57:00,
2013-05-16 06:02:00,66.3,42.5,29.94,SSE,158,2.5,3.2,42,0.00,,CLR,0.00,VWS V14.00,2013-05-16 10:02:00,
2013-05-16 06:07:00,65.9,42.8,29.94,West,266,3.0,3.2,43,0.00,,CLR,0.00,VWS V14.00,2013-05-16 10:07:00,
2013-05-16 06:12:00,66.1,42.3,29.94,SSW,199,2.5,3.8,42,0.00,,CLR,0.00,VWS V14.00,2013-05-16 10:12:00,
2013-05-16 06:18:00,65.9,42.8,29.97,SW,229,3.4,3.8,43,0.00,,CLR,0.00,VWS V14.00,2013-05-16 10:18:00,
2013-05-16 06:23:00,66.3,43.1,29.97,WSW,256,6.9,7.5,43,0.00,,CLR,0.00,VWS V14.00,2013-05-16 10:23:00,
2013-05-16 06:28:00,66.3,43.1,29.97,SSE,153,3.0,3.2,43,0.00,,CLR,0.00,VWS V14.00,2013-05-16 10:28:00,
2013-05-16 06:33:00,65.9,42.8,29.97,SSW,211,2.5,4.3,43,0.00,,CLR,0.00,VWS V14.00,2013-05-16 10:33:00,
2013-05-16 06:38:00,66.1,43.0,29.97,WSW,257,3.4,7.5,43,0.00,,CLR,0.00,VWS V14.00,2013-05-16 10:38:00,
2013-05-16 06:43:00,66.1,43.5,29.97,SSW,208,3.4,3.8,44,0.00,,CLR,0.00,VWS V14.00,2013-05-16 10:43:00,
2013-05-16 06:48:00,66.1,43.5,29.97,SW,220,3.0,3.2,44,0.00,,CLR,0.00,VWS V14.00,2013-05-16 10:48:00,
2013-05-16 06:53:00,66.3,43.7,29.97,South,189,0.0,4.8,44,0.00,,CLR,0.00,VWS V14.00,2013-05-16 10:53:00,
2013-05-16 06:58:00,66.4,43.9,29.97,WSW,245,6.4,7.0,44,0.00,,CLR,0.00,VWS V14.00,2013-05-16 10:58:00,
2013-05-16 07:03:00,66.4,43.9,29.97,SSE,168,3.4,3.8,44,0.00,,CLR,0.00,VWS V14.00,2013-05-16 11:03:00,
2013-05-16 07:08:00,66.4,44.5,29.97,South,189,3.4,7.5,45,0.00,,CLR,0.00,VWS V14.00,2013-05-16 11:08:00,
2013-05-16 07:14:00,66.4,44.5,29.97,SW,227,2.5,4.8,45,0.00,,CLR,0.00,VWS V14.00,2013-05-16 11:14:00,
2013-05-16 07:19:00,66.4,44.5,29.97,South,172,3.4,3.8,45,0.00,,CLR,0.00,VWS V14.00,2013-05-16 11:19:00,
2013-05-16 07:24:00,66.6,45.2,29.97,West,278,4.4,7.0,46,0.00,,CLR,0.00,VWS V14.00,2013-05-16 11:24:00,
2013-05-16 07:29:00,67.0,45.0,29.97,West,269,3.9,9.9,45,0.00,,CLR,0.00,VWS V14.00,2013-05-16 11:29:00,
2013-05-16 07:34:00,66.8,44.8,29.97,SW,226,0.0,3.8,45,0.00,,CLR,0.00,VWS V14.00,2013-05-16 11:34:00,
2013-05-16 07:39:00,66.8,44.8,29.97,North,353,3.4,3.8,45,0.00,,CLR,0.00,VWS V14.00,2013-05-16 11:39:00,
2013-05-16 07:44:00,66.8,45.4,29.97,WNW,303,4.4,5.9,46,0.00,,CLR,0.00,VWS V14.00,2013-05-16 11:44:00,
2013-05-16 07:49:00,67.0,45.0,30.00,West,260,3.9,4.8,45,0.00,,CLR,0.00,VWS V14.00,2013-05-16 11:49:00,
2013-05-16 07:54:00,67.4,45.3,30.00,SSE,160,3.4,7.0,45,0.00,,CLR,0.00,VWS V14.00,2013-05-16 11:54:00,
2013-05-16 07:59:00,67.4,45.3,30.00,SW,230,2.5,7.5,45,0.00,,CLR,0.00,VWS V14.00,2013-05-16 11:59:00,
2013-05-16 08:04:00,67.2,45.7,30.00,SW,227,4.4,5.4,46,0.00,,BKN065,0.00,VWS V14.00,2013-05-16 12:04:00,
2013-05-16 08:09:00,67.4,45.3,30.00,SW,230,3.9,4.8,45,0.00,,BKN065,0.00,VWS V14.00,2013-05-16 12:09:00,
2013-05-16 08:14:00,67.2,45.7,30.00,WNW,286,2.5,3.2,46,0.00,,BKN065,0.00,VWS V14.00,2013-05-16 12:14:00,
2013-05-16 08:20:00,67.2,45.7,30.00,SSW,204,0.0,0.0,46,0.00,,BKN065,0.00,VWS V14.00,2013-05-16 12:20:00,
2013-05-16 08:25:00,67.2,46.3,30.00,NW,321,3.9,5.9,47,0.00,,BKN065,0.00,VWS V14.00,2013-05-16 12:25:00,
2013-05-16 08:30:00,67.2,46.3,30.00,WNW,292,4.4,4.8,47,0.00,,BKN065,0.00,VWS V14.00,2013-05-16 12:30:00,
2013-05-16 08:35:00,67.4,45.9,30.00,West,279,5.9,6.4,46,0.00,,BKN065,0.00,VWS V14.00,2013-05-16 12:35:00,
2013-05-16 08:40:00,67.2,46.8,30.00,NW,308,3.4,3.8,48,0.00,,BKN065,0.00,VWS V14.00,2013-05-16 12:40:00,
2013-05-16 08:45:00,67.4,47.0,30.00,NW,322,3.4,4.8,48,0.00,,BKN065,0.00,VWS V14.00,2013-05-16 12:45:00,
2013-05-16 08:50:00,67.7,46.8,30.00,NW,312,3.9,4.3,47,0.00,,BKN065,0.00,VWS V14.00,2013-05-16 12:50:00,
2013-05-16 08:55:00,67.9,47.0,30.00,SW,227,3.0,5.9,47,0.00,,BKN065,0.00,VWS V14.00,2013-05-16 12:55:00,
2013-05-16 09:00:00,68.1,47.7,30.00,NW,308,11.1,18.0,48,0.00,,BKN065,0.00,VWS V14.00,2013-05-16 13:00:00,
2013-05-16 09:05:00,68.5,48.0,30.00,West,273,5.4,6.4,48,0.00,,CLR,0.00,VWS V14.00,2013-05-16 13:05:00,
2013-05-16 09:11:00,68.8,48.4,30.00,WNW,283,9.1,9.9,48,0.00,,CLR,0.00,VWS V14.00,2013-05-16 13:11:00,
2013-05-16 09:16:00,68.3,47.9,30.00,West,276,4.9,6.4,48,0.00,,CLR,0.00,VWS V14.00,2013-05-16 13:16:00,
2013-05-16 09:21:00,68.5,47.5,30.00,NW,323,8.9,12.6,47,0.00,,CLR,0.00,VWS V14.00,2013-05-16 13:21:00,
2013-05-16 09:26:00,68.5,47.5,30.00,West,270,6.4,10.5,47,0.00,,CLR,0.00,VWS V14.00,2013-05-16 13:26:00,
2013-05-16 09:31:00,68.7,47.1,30.00,WSW,251,5.4,9.7,46,0.00,,CLR,0.00,VWS V14.00,2013-05-16 13:31:00,
2013-05-16 09:36:00,68.8,47.8,30.00,SSW,203,3.0,7.5,47,0.00,,CLR,0.00,VWS V14.00,2013-05-16 13:36:00,
2013-05-16 09:41:00,69.2,48.7,30.00,West,273,6.9,12.6,48,0.00,,CLR,0.00,VWS V14.00,2013-05-16 13:41:00,
2013-05-16 09:46:00,69.4,49.4,30.00,West,279,8.4,9.1,49,0.00,,CLR,0.00,VWS V14.00,2013-05-16 13:46:00,
2013-05-16 09:51:00,70.0,49.4,29.97,WNW,287,8.9,10.5,48,0.00,,CLR,0.00,VWS V14.00,2013-05-16 13:51:00,
2013-05-16 09:56:00,70.0,49.4,29.97,West,270,9.6,12.6,48,0.00,,CLR,0.00,VWS V14.00,2013-05-16 13:56:00,
2013-05-16 10:01:00,70.2,49.6,30.00,SSW,206,6.4,8.6,48,0.00,,CLR,0.00,VWS V14.00,2013-05-16 14:01:00,
2013-05-16 10:06:00,69.8,49.8,30.00,West,259,6.9,8.1,49,0.00,,CLR,0.00,VWS V14.00,2013-05-16 14:06:00,
2013-05-16 10:12:00,70.5,49.3,30.00,WSW,250,6.4,7.0,47,0.00,,CLR,0.00,VWS V14.00,2013-05-16 14:12:00,
2013-05-16 10:17:00,70.9,50.8,29.97,WSW,247,6.9,7.5,49,0.00,,FEW037,0.00,VWS V14.00,2013-05-16 14:17:00,
2013-05-16 10:22:00,70.9,50.2,29.97,WSW,237,4.4,6.4,48,0.00,,FEW037,0.00,VWS V14.00,2013-05-16 14:22:00,
2013-05-16 10:27:00,71.4,50.8,29.97,WSW,243,3.4,6.4,48,0.00,,FEW037,0.00,VWS V14.00,2013-05-16 14:27:00,
2013-05-16 10:32:00,71.8,50.5,29.97,West,265,6.4,7.0,47,0.00,,FEW037,0.00,VWS V14.00,2013-05-16 14:32:00,
2013-05-16 10:37:00,71.6,50.4,29.97,SW,225,0.0,3.2,47,0.00,,FEW037,0.00,VWS V14.00,2013-05-16 14:37:00,
2013-05-16 10:42:00,72.0,50.7,29.97,South,186,5.4,5.9,47,0.00,,FEW037,0.00,VWS V14.00,2013-05-16 14:42:00,
2013-05-16 10:47:00,72.4,51.0,29.97,South,177,3.4,7.5,47,0.00,,FEW037,0.00,VWS V14.00,2013-05-16 14:47:00,
2013-05-16 10:52:00,72.6,52.9,29.97,SSW,209,3.9,4.8,50,0.00,,FEW037,0.00,VWS V14.00,2013-05-16 14:52:00,
2013-05-16 10:57:00,73.3,53.0,29.97,WNW,287,6.4,7.5,49,0.00,,FEW037,0.00,VWS V14.00,2013-05-16 14:57:00,
2013-05-16 11:02:00,73.7,53.9,29.97,SW,214,3.0,6.4,50,0.00,,BKN037,0.00,VWS V14.00,2013-05-16 15:02:00,
2013-05-16 11:08:00,73.9,52.4,29.97,SW,216,5.4,9.1,47,0.00,,BKN037,0.00,VWS V14.00,2013-05-16 15:08:00,
2013-05-16 11:13:00,74.4,53.5,29.97,SSW,193,4.9,5.9,48,0.00,,BKN037,0.00,VWS V14.00,2013-05-16 15:13:00,
2013-05-16 11:18:00,74.6,53.6,29.97,SW,214,3.9,6.4,48,0.00,,BKN037,0.00,VWS V14.00,2013-05-16 15:18:00,
2013-05-16 11:23:00,73.9,52.4,29.97,WSW,242,11.6,12.6,47,0.00,,BKN037,0.00,VWS V14.00,2013-05-16 15:23:00,
2013-05-16 11:28:00,73.9,53.0,29.97,WSW,238,9.1,9.9,48,0.00,,BKN037,0.00,VWS V14.00,2013-05-16 15:28:00,
2013-05-16 11:33:00,74.2,53.3,29.97,SSE,167,3.0,9.7,48,0.00,,BKN037,0.00,VWS V14.00,2013-05-16 15:33:00,
2013-05-16 11:38:00,74.2,54.4,29.97,WNW,286,8.9,10.5,50,0.00,,BKN037,0.00,VWS V14.00,2013-05-16 15:38:00,
2013-05-16 11:43:00,74.4,54.0,29.97,WSW,252,9.6,12.1,49,0.00,,BKN037,0.00,VWS V14.00,2013-05-16 15:43:00,
2013-05-16 11:48:00,74.8,53.8,29.97,WSW,245,6.9,9.7,48,0.00,,BKN037,0.00,VWS V14.00,2013-05-16 15:48:00,
2013-05-16 11:53:00,74.8,54.9,29.97,WNW,297,3.9,10.5,50,0.00,,BKN037,0.00,VWS V14.00,2013-05-16 15:53:00,
2013-05-16 11:58:00,75.3,53.7,29.97,WSW,239,5.9,7.5,47,0.00,,BKN037,0.00,VWS V14.00,2013-05-16 15:58:00,
2013-05-16 12:03:00,74.6,53.6,29.97,West,265,8.4,9.1,48,0.00,,BKN043,0.00,VWS V14.00,2013-05-16 16:03:00,
2013-05-16 12:08:00,74.6,54.8,29.97,West,275,6.4,7.0,50,0.00,,BKN043,0.00,VWS V14.00,2013-05-16 16:08:00,
2013-05-16 12:13:00,75.0,54.5,29.97,West,260,3.0,4.3,49,0.00,,BKN043,0.00,VWS V14.00,2013-05-16 16:13:00,
2013-05-16 12:18:00,75.0,54.5,30.00,SW,220,6.4,8.6,49,0.00,,BKN043,0.00,VWS V14.00,2013-05-16 16:18:00,
2013-05-16 12:24:00,75.0,54.0,30.00,West,278,5.9,9.7,48,0.00,,BKN043,0.00,VWS V14.00,2013-05-16 16:24:00,
2013-05-16 12:29:00,75.0,54.5,30.00,SW,229,3.4,9.9,49,0.00,,BKN043,0.00,VWS V14.00,2013-05-16 16:29:00,
2013-05-16 12:34:00,74.8,54.9,29.97,WNW,295,8.9,12.1,50,0.00,,BKN043,0.00,VWS V14.00,2013-05-16 16:34:00,
2013-05-16 12:39:00,75.0,56.2,29.97,West,268,6.9,7.5,52,0.00,,BKN043,0.00,VWS V14.00,2013-05-16 16:39:00,
2013-05-16 12:44:00,75.0,56.7,29.97,West,259,4.4,7.0,53,0.00,,BKN043,0.00,VWS V14.00,2013-05-16 16:44:00,
2013-05-16 12:49:00,75.9,56.5,29.97,NW,308,11.1,12.1,51,0.00,,BKN043,0.00,VWS V14.00,2013-05-16 16:49:00,
2013-05-16 12:54:00,76.5,55.9,29.97,West,275,11.6,14.8,49,0.00,,BKN043,0.00,VWS V14.00,2013-05-16 16:54:00,
2013-05-16 12:59:00,76.8,57.3,29.97,NW,326,9.1,12.1,51,0.00,,BKN043,0.00,VWS V14.00,2013-05-16 16:59:00,
2013-05-16 13:04:00,77.2,57.7,29.97,WNW,284,8.4,9.1,51,0.00,,OVC060,0.00,VWS V14.00,2013-05-16 17:04:00,
2013-05-16 13:09:00,77.4,57.9,29.97,West,265,5.9,9.7,51,0.00,,OVC060,0.00,VWS V14.00,2013-05-16 17:09:00,
2013-05-16 13:14:00,76.8,56.8,29.97,NW,323,12.1,15.3,50,0.00,,OVC060,0.00,VWS V14.00,2013-05-16 17:14:00,
2013-05-16 13:19:00,75.9,56.0,29.97,NW,317,4.4,7.5,50,0.00,,OVC060,0.00,VWS V14.00,2013-05-16 17:19:00,
2013-05-16 13:24:00,75.5,56.7,29.97,NW,322,6.4,7.5,52,0.00,,OVC060,0.00,VWS V14.00,2013-05-16 17:24:00,
2013-05-16 13:29:00,75.5,56.2,29.97,WNW,298,8.9,12.1,51,0.00,,OVC060,0.00,VWS V14.00,2013-05-16 17:29:00,
2013-05-16 13:34:00,75.3,56.0,30.00,NNW,340,13.5,14.8,51,0.00,,OVC060,0.00,VWS V14.00,2013-05-16 17:34:00,
2013-05-16 13:39:00,75.2,56.9,30.00,NNW,331,13.0,16.4,53,0.00,,OVC060,0.00,VWS V14.00,2013-05-16 17:39:00,
2013-05-16 13:45:00,76.1,59.8,30.00,NNW,327,16.5,18.0,57,0.00,,OVC060,0.00,VWS V14.00,2013-05-16 17:45:00,
2013-05-16 13:50:00,76.8,60.0,30.00,West,274,8.4,15.3,56,0.00,,OVC060,0.00,VWS V14.00,2013-05-16 17:50:00,
2013-05-16 13:55:00,77.0,57.5,30.00,WNW,297,6.9,12.6,51,0.00,,OVC060,0.00,VWS V14.00,2013-05-16 17:55:00,
2013-05-16 14:00:00,76.8,58.4,30.00,NNW,330,13.0,15.3,53,0.00,,OVC060,0.00,VWS V14.00,2013-05-16 18:00:00,
2013-05-16 14:05:00,77.2,57.7,29.97,NW,308,6.4,10.5,51,0.00,,BKN095,0.00,VWS V14.00,2013-05-16 18:05:00,
2013-05-16 14:10:00,77.4,57.9,29.97,NNW,327,11.1,12.1,51,0.00,,BKN095,0.00,VWS V14.00,2013-05-16 18:10:00,
2013-05-16 14:15:00,77.2,55.4,29.97,NNW,336,6.4,7.0,47,0.00,,BKN095,0.00,VWS V14.00,2013-05-16 18:15:00,
2013-05-16 14:20:00,77.9,56.7,29.97,NW,313,3.9,6.4,48,0.00,,BKN095,0.00,VWS V14.00,2013-05-16 18:20:00,
2013-05-16 14:25:00,77.8,57.1,29.97,WNW,293,6.4,7.5,49,0.00,,BKN095,0.00,VWS V14.00,2013-05-16 18:25:00,
2013-05-16 14:30:00,77.6,55.8,29.97,West,265,5.9,7.5,47,0.00,,BKN095,0.00,VWS V14.00,2013-05-16 18:30:00,
2013-05-16 14:35:00,76.6,54.3,29.97,NW,310,6.9,9.1,46,0.00,,BKN095,0.00,VWS V14.00,2013-05-16 18:35:00,
2013-05-16 14:40:00,76.6,56.1,29.97,WNW,292,5.9,7.5,49,0.00,,BKN095,0.00,VWS V14.00,2013-05-16 18:40:00,
2013-05-16 14:45:00,76.1,55.6,29.97,West,270,9.1,9.9,49,0.00,,BKN095,0.00,VWS V14.00,2013-05-16 18:45:00,
2013-05-16 14:51:00,76.5,58.1,29.97,WNW,289,8.9,9.9,53,0.00,,BKN095,0.00,VWS V14.00,2013-05-16 18:51:00,
2013-05-16 14:56:00,76.5,55.3,29.97,NW,324,9.6,10.5,48,0.00,,BKN095,0.00,VWS V14.00,2013-05-16 18:56:00,
2013-05-16 15:01:00,76.6,56.6,29.97,NW,311,9.1,10.5,50,0.00,,BKN095,0.00,VWS V14.00,2013-05-16 19:01:00,
2013-05-16 15:06:00,76.3,55.7,29.97,WNW,291,6.4,9.7,49,0.00,,FEW043,0.00,VWS V14.00,2013-05-16 19:06:00,
2013-05-16 15:11:00,76.1,56.1,29.97,WNW,298,5.9,6.4,50,0.00,,FEW043,0.00,VWS V14.00,2013-05-16 19:11:00,
2013-05-16 15:16:00,75.3,56.0,29.97,WNW,283,5.4,9.9,51,0.00,,FEW043,0.00,VWS V14.00,2013-05-16 19:16:00,
2013-05-16 15:21:00,75.2,55.3,29.97,West,272,8.4,9.1,50,0.00,,FEW043,0.00,VWS V14.00,2013-05-16 19:21:00,
2013-05-16 15:26:00,74.2,55.0,29.97,West,273,9.1,9.9,51,0.00,,FEW043,0.00,VWS V14.00,2013-05-16 19:26:00,
2013-05-16 15:31:00,72.2,52.5,30.00,NW,326,21.2,23.1,50,0.00,,FEW043,0.00,VWS V14.00,2013-05-16 19:31:00,
2013-05-16 15:36:00,61.6,50.2,30.00,NW,307,14.5,18.5,66,0.03,,FEW043,0.03,VWS V14.00,2013-05-16 19:36:00,
2013-05-16 15:41:00,61.1,50.8,30.00,North,2,8.4,13.2,69,0.03,,FEW043,0.03,VWS V14.00,2013-05-16 19:41:00,
2013-05-16 15:47:00,61.8,51.9,30.00,NNW,333,3.4,4.3,70,0.03,,FEW043,0.03,VWS V14.00,2013-05-16 19:47:00,
2013-05-16 15:52:00,62.5,53.4,30.00,East,96,3.0,4.3,72,0.04,,FEW043,0.04,VWS V14.00,2013-05-16 19:52:00,
2013-05-16 15:57:00,62.5,54.5,30.00,SSE,147,5.4,5.9,75,0.04,,FEW043,0.04,VWS V14.00,2013-05-16 19:57:00,
2013-05-16 16:02:00,62.7,54.7,30.00,SSE,160,5.9,6.4,75,0.04,,FEW043,0.04,VWS V14.00,2013-05-16 20:02:00,
2013-05-16 16:07:00,62.5,53.8,30.00,ENE,68,0.0,5.9,73,0.04,,FEW040,0.04,VWS V14.00,2013-05-16 20:07:00,
2013-05-16 16:12:00,63.3,54.5,30.00,SW,217,0.0,0.0,73,0.04,,FEW040,0.04,VWS V14.00,2013-05-16 20:12:00,
2013-05-16 16:17:00,64.0,55.6,29.97,ESE,110,3.0,3.8,74,0.04,,FEW040,0.04,VWS V14.00,2013-05-16 20:17:00,
2013-05-16 16:22:00,64.6,56.9,29.97,ENE,76,0.0,0.0,76,0.04,,FEW040,0.04,VWS V14.00,2013-05-16 20:22:00,
2013-05-16 16:27:00,65.9,58.1,29.97,ENE,76,2.5,2.7,76,0.04,,FEW040,0.04,VWS V14.00,2013-05-16 20:27:00,
2013-05-16 16:32:00,66.8,60.1,29.97,ENE,70,0.0,0.0,79,0.04,,FEW040,0.04,VWS V14.00,2013-05-16 20:32:00,
2013-05-16 16:37:00,66.6,60.3,29.97,ENE,70,0.0,0.0,80,0.02,,FEW040,0.04,VWS V14.00,2013-05-16 20:37:00,
2013-05-16 16:43:00,66.4,58.7,29.97,East,92,0.0,0.0,76,0.01,,FEW040,0.04,VWS V14.00,2013-05-16 20:43:00,
2013-05-16 16:48:00,67.0,59.2,29.97,East,92,0.0,0.0,76,0.01,,FEW040,0.04,VWS V14.00,2013-05-16 20:48:00,
2013-05-16 16:53:00,67.2,59.7,29.97,East,92,0.0,0.0,77,0.00,,FEW040,0.04,VWS V14.00,2013-05-16 20:53:00,
2013-05-16 16:58:00,67.7,60.6,29.97,SE,138,0.0,0.0,78,0.00,,FEW040,0.04,VWS V14.00,2013-05-16 20:58:00,
2013-05-16 17:03:00,68.1,59.9,29.97,SE,139,0.0,0.0,75,0.00,,FEW049,0.04,VWS V14.00,2013-05-16 21:03:00,
2013-05-16 17:08:00,68.8,59.5,29.97,South,177,0.0,0.0,72,0.00,,FEW049,0.04,VWS V14.00,2013-05-16 21:08:00,
2013-05-16 17:13:00,69.6,59.4,29.97,North,4,0.0,0.0,70,0.00,,FEW049,0.04,VWS V14.00,2013-05-16 21:13:00,
2013-05-16 17:18:00,69.6,60.2,29.97,NW,315,0.0,0.0,72,0.00,,FEW049,0.04,VWS V14.00,2013-05-16 21:18:00,
2013-05-16 17:23:00,69.4,59.6,29.97,North,353,0.0,0.0,71,0.00,,FEW049,0.04,VWS V14.00,2013-05-16 21:23:00,
2013-05-16 17:28:00,69.4,60.0,29.97,NNW,346,3.4,3.8,72,0.00,,FEW049,0.04,VWS V14.00,2013-05-16 21:28:00,
2013-05-16 17:33:00,70.0,60.9,29.97,South,183,0.0,3.2,73,0.00,,FEW049,0.04,VWS V14.00,2013-05-16 21:33:00,
2013-05-16 17:38:00,70.7,61.2,29.97,NNW,345,4.4,6.4,72,0.00,,FEW049,0.04,VWS V14.00,2013-05-16 21:38:00,
2013-05-16 17:43:00,70.5,61.5,29.97,NE,49,2.5,2.7,73,0.00,,FEW049,0.04,VWS V14.00,2013-05-16 21:43:00,
2013-05-16 17:48:00,70.3,61.7,29.97,NW,323,5.9,9.7,74,0.00,,FEW049,0.04,VWS V14.00,2013-05-16 21:48:00,
2013-05-16 17:53:00,70.7,60.5,29.97,NNW,337,6.4,9.9,70,0.00,,FEW049,0.04,VWS V14.00,2013-05-16 21:53:00,
2013-05-16 17:59:00,71.1,60.8,29.97,NNW,332,6.9,8.1,70,0.00,,FEW049,0.04,VWS V14.00,2013-05-16 21:59:00,
2013-05-16 18:04:00,71.1,60.4,29.97,NNW,327,9.6,13.2,69,0.00,,OVC055,0.04,VWS V14.00,2013-05-16 22:04:00,
2013-05-16 18:09:00,70.7,60.0,29.97,NW,316,9.1,10.5,69,0.00,,OVC055,0.04,VWS V14.00,2013-05-16 22:09:00,
2013-05-16 18:14:00,70.5,59.9,29.97,NW,325,6.9,7.5,69,0.00,,OVC055,0.04,VWS V14.00,2013-05-16 22:14:00,
2013-05-16 18:19:00,70.0,60.1,29.97,NNW,340,6.4,7.5,71,0.00,,OVC055,0.04,VWS V14.00,2013-05-16 22:19:00,
2013-05-16 18:24:00,69.4,59.6,29.97,West,267,6.4,9.9,71,0.00,,OVC055,0.04,VWS V14.00,2013-05-16 22:24:00,
2013-05-16 18:29:00,65.7,55.7,29.97,WNW,293,22.1,24.2,70,0.00,,OVC055,0.04,VWS V14.00,2013-05-16 22:29:00,
2013-05-16 18:34:00,64.4,55.2,30.00,NW,314,15.0,18.5,72,0.00,,OVC055,0.04,VWS V14.00,2013-05-16 22:34:00,
2013-05-16 18:39:00,65.2,55.5,30.00,NNW,335,17.5,22.5,71,0.00,,OVC055,0.04,VWS V14.00,2013-05-16 22:39:00,
2013-05-16 18:44:00,65.0,55.0,30.00,NNW,334,9.1,12.6,70,0.00,,OVC055,0.04,VWS V14.00,2013-05-16 22:44:00,
2013-05-16 18:49:00,64.8,55.2,30.00,North,6,3.9,9.9,71,0.00,,-RA,0.04,VWS V14.00,2013-05-16 22:49:00,
2013-05-16 18:55:00,64.4,55.6,30.00,NNW,335,3.0,3.8,73,0.00,,-RA,0.04,VWS V14.00,2013-05-16 22:55:00,
2013-05-16 19:00:00,64.4,55.6,30.00,SSE,163,3.0,3.8,73,0.00,,-RA,0.04,VWS V14.00,2013-05-16 23:00:00,
2013-05-16 19:05:00,64.0,55.6,30.00,WSW,243,0.0,2.7,74,0.00,, +RA,0.04,VWS V14.00,2013-05-16 23:05:00,
2013-05-16 19:10:00,63.5,55.8,30.00,NE,49,3.4,3.8,76,0.01,, +RA,0.05,VWS V14.00,2013-05-16 23:10:00,
2013-05-16 19:15:00,63.7,55.2,30.00,ESE,106,4.4,4.8,74,0.02,, +RA,0.06,VWS V14.00,2013-05-16 23:15:00,
2013-05-16 19:20:00,62.9,56.3,30.00,ESE,119,3.9,4.3,79,0.03,,-RA,0.07,VWS V14.00,2013-05-16 23:20:00,
2013-05-16 19:25:00,62.7,56.1,30.00,SSE,166,3.9,4.3,79,0.04,,-RA,0.08,VWS V14.00,2013-05-16 23:25:00,
2013-05-16 19:30:00,62.7,55.8,30.00,NW,319,0.0,0.0,78,0.06,,-RA,0.10,VWS V14.00,2013-05-16 23:30:00,
2013-05-16 19:35:00,62.4,56.5,30.03,SE,141,3.9,5.9,81,0.07,, +RA,0.11,VWS V14.00,2013-05-16 23:35:00,
2013-05-16 19:40:00,62.0,56.4,30.03,SE,127,3.9,4.3,82,0.08,, +RA,0.12,VWS V14.00,2013-05-16 23:40:00,
2013-05-16 19:45:00,61.8,56.3,30.03,SSE,156,7.9,9.1,82,0.09,,RA,0.13,VWS V14.00,2013-05-16 23:45:00,
2013-05-16 19:50:00,61.6,56.4,30.06,SSE,151,4.4,7.5,83,0.09,,RA,0.13,VWS V14.00,2013-05-16 23:50:00,
2013-05-16 19:55:00,61.6,56.4,30.06,SE,139,3.4,5.9,83,0.09,,RA,0.13,VWS V14.00,2013-05-16 23:55:00,
2013-05-16 20:01:00,61.6,56.1,30.06,South,170,4.4,4.8,82,0.09,,RA,0.13,VWS V14.00,2013-05-17 00:01:00,
2013-05-16 20:06:00,61.8,55.9,30.06,WSW,237,5.4,5.9,81,0.08,,RA,0.13,VWS V14.00,2013-05-17 00:06:00,
2013-05-16 20:11:00,61.6,55.7,30.06,South,169,4.4,4.8,81,0.08,,RA,0.13,VWS V14.00,2013-05-17 00:11:00,
2013-05-16 20:16:00,61.4,55.9,30.06,South,179,3.4,3.8,82,0.07,,RA,0.13,VWS V14.00,2013-05-17 00:16:00,
2013-05-16 20:21:00,61.4,56.2,30.06,SSE,161,2.5,3.2,83,0.06,,RA,0.13,VWS V14.00,2013-05-17 00:21:00,
2013-05-16 20:26:00,61.2,56.0,30.06,SE,136,3.4,4.3,83,0.04,,RA,0.13,VWS V14.00,2013-05-17 00:26:00,
2013-05-16 20:31:00,61.2,56.0,30.06,SE,132,3.4,5.4,83,0.03,,RA,0.13,VWS V14.00,2013-05-17 00:31:00,
2013-05-16 20:36:00,61.1,56.2,30.06,SSE,155,3.0,3.8,84,0.02,,RA,0.13,VWS V14.00,2013-05-17 00:36:00,
2013-05-16 20:41:00,61.1,56.2,30.06,SE,140,0.0,2.7,84,0.01,,RA,0.13,VWS V14.00,2013-05-17 00:41:00,
2013-05-16 20:46:00,61.1,56.2,30.03,SE,129,3.9,7.0,84,0.00,,RA,0.13,VWS V14.00,2013-05-17 00:46:00,
2013-05-16 20:51:00,60.9,56.0,30.03,SE,139,3.9,4.8,84,0.00,,RA,0.13,VWS V14.00,2013-05-17 00:51:00,
2013-05-16 20:56:00,60.9,56.3,30.03,SE,137,3.0,4.3,85,0.00,,RA,0.13,VWS V14.00,2013-05-17 00:56:00,
2013-05-16 21:01:00,60.7,56.5,30.06,SSW,196,0.0,0.0,86,0.00,,-RA,0.13,VWS V14.00,2013-05-17 01:01:00,
2013-05-16 21:06:00,60.1,56.6,30.06,SSW,196,0.0,0.0,88,0.00,,-RA,0.13,VWS V14.00,2013-05-17 01:06:00,
2013-05-16 21:11:00,60.1,56.6,30.06,SSW,195,0.0,0.0,88,0.00,,-RA,0.13,VWS V14.00,2013-05-17 01:11:00,
2013-05-16 21:16:00,60.1,56.6,30.06,SSW,196,0.0,0.0,88,0.00,,-RA,0.13,VWS V14.00,2013-05-17 01:16:00,
2013-05-16 21:21:00,60.1,56.6,30.06,SSW,196,0.0,0.0,88,0.00,,-RA,0.13,VWS V14.00,2013-05-17 01:21:00,
2013-05-16 21:27:00,60.0,56.4,30.06,SE,137,0.0,0.0,88,0.00,,-RA,0.13,VWS V14.00,2013-05-17 01:27:00,
2013-05-16 21:32:00,60.0,56.7,30.06,SE,137,0.0,0.0,89,0.00,,-RA,0.13,VWS V14.00,2013-05-17 01:32:00,
2013-05-16 21:37:00,60.0,56.7,30.06,SE,138,0.0,0.0,89,0.00,,-RA,0.13,VWS V14.00,2013-05-17 01:37:00,
2013-05-16 21:42:00,60.0,56.7,30.06,SE,138,0.0,0.0,89,0.00,,-RA,0.13,VWS V14.00,2013-05-17 01:42:00,
2013-05-16 21:47:00,59.6,56.7,30.06,SE,138,0.0,0.0,90,0.00,,-RA,0.13,VWS V14.00,2013-05-17 01:47:00,
2013-05-16 21:52:00,59.6,56.7,30.06,SE,137,0.0,0.0,90,0.00,,-RA,0.13,VWS V14.00,2013-05-17 01:52:00,
2013-05-16 21:57:00,59.4,56.8,30.06,SE,138,0.0,0.0,91,0.00,,-RA,0.13,VWS V14.00,2013-05-17 01:57:00,
2013-05-16 22:02:00,59.2,56.6,30.03,SE,137,0.0,0.0,91,0.00,,SCT110,0.13,VWS V14.00,2013-05-17 02:02:00,
2013-05-16 22:07:00,59.0,56.4,30.03,East,89,0.0,2.7,91,0.00,,SCT110,0.13,VWS V14.00,2013-05-17 02:07:00,
2013-05-16 22:12:00,58.8,56.5,30.03,ESE,109,3.0,3.2,92,0.00,,SCT110,0.13,VWS V14.00,2013-05-17 02:12:00,
2013-05-16 22:17:00,58.8,56.8,30.03,ENE,68,3.0,3.2,93,0.00,,SCT110,0.13,VWS V14.00,2013-05-17 02:17:00,
2013-05-16 22:23:00,59.0,57.3,30.03,ENE,68,0.0,0.0,94,0.00,,SCT110,0.13,VWS V14.00,2013-05-17 02:23:00,
2013-05-16 22:28:00,59.0,57.3,30.03,ENE,68,0.0,0.0,94,0.00,,SCT110,0.13,VWS V14.00,2013-05-17 02:28:00,
2013-05-16 22:33:00,59.0,57.3,30.03,ENE,68,0.0,0.0,94,0.00,,SCT110,0.13,VWS V14.00,2013-05-17 02:33:00,
2013-05-16 22:38:00,59.0,57.3,30.03,ENE,68,0.0,0.0,94,0.00,,SCT110,0.13,VWS V14.00,2013-05-17 02:38:00,
2013-05-16 22:43:00,58.8,57.1,30.03,ENE,68,0.0,0.0,94,0.00,,SCT110,0.13,VWS V14.00,2013-05-17 02:43:00,
2013-05-16 22:48:00,58.8,57.1,30.03,ENE,68,0.0,0.0,94,0.00,,SCT110,0.13,VWS V14.00,2013-05-17 02:48:00,
2013-05-16 22:53:00,58.8,57.1,30.03,ENE,68,0.0,0.0,94,0.00,,SCT110,0.13,VWS V14.00,2013-05-17 02:53:00,
2013-05-16 22:58:00,58.5,56.8,30.03,NNW,338,3.4,3.8,94,0.00,,SCT110,0.13,VWS V14.00,2013-05-17 02:58:00,
2013-05-16 23:03:00,57.7,55.7,30.03,NNW,331,0.0,0.0,93,0.00,,BKN100,0.13,VWS V14.00,2013-05-17 03:03:00,
2013-05-16 23:08:00,57.7,55.7,30.03,NNW,331,0.0,0.0,93,0.00,,BKN100,0.13,VWS V14.00,2013-05-17 03:08:00,
2013-05-16 23:13:00,57.7,56.0,30.03,NNW,331,0.0,0.0,94,0.00,,BKN100,0.13,VWS V14.00,2013-05-17 03:13:00,
2013-05-16 23:18:00,57.5,55.8,30.03,NNW,331,0.0,0.0,94,0.00,,BKN100,0.13,VWS V14.00,2013-05-17 03:18:00,
2013-05-16 23:24:00,57.7,56.3,30.03,NNW,331,0.0,0.0,95,0.00,,BKN100,0.13,VWS V14.00,2013-05-17 03:24:00,
2013-05-16 23:29:00,57.7,56.6,30.03,NNW,331,0.0,0.0,96,0.00,,BKN100,0.13,VWS V14.00,2013-05-17 03:29:00,
2013-05-16 23:34:00,57.9,56.8,30.03,NNW,331,0.0,0.0,96,0.00,,BKN100,0.13,VWS V14.00,2013-05-17 03:34:00,
2013-05-16 23:39:00,57.9,56.8,30.03,NNW,331,0.0,0.0,96,0.00,,BKN100,0.13,VWS V14.00,2013-05-17 03:39:00,
2013-05-16 23:44:00,57.9,56.8,30.03,NNW,331,0.0,0.0,96,0.00,,BKN100,0.13,VWS V14.00,2013-05-17 03:44:00,
2013-05-16 23:49:00,57.9,56.8,30.06,NNW,331,0.0,0.0,96,0.00,,BKN100,0.13,VWS V14.00,2013-05-17 03:49:00,
2013-05-16 23:54:00,57.7,56.6,30.06,NNW,331,0.0,0.0,96,0.00,,BKN100,0.13,VWS V14.00,2013-05-17 03:54:00,
2013-05-16 23:59:00,57.5,56.1,30.06,NNW,331,0.0,0.0,95,0.00,,BKN100,0.00,VWS V14.00,2013-05-17 03:59:00,